Simultaneous Nadir Overpasses (SNOs) Predictions

Prediction of SNOs over PacNW region [( 10.00, 139.50) to ( 22.70, 165.60)] between AQUA and NPP Satellites:

Table of predicted SNOs over PacNW region for the next 30.0 days since TLE Epoch: 10/22/2022
Index Date (AQUA) Time (AQUA) AQUA Lat,Lon Date (NPP) Time (NPP) NPP Lat,Lon Distance(km) Time Diff (sec)
1 10/23/2022 02:50:45 12.69, 160.80 10/23/2022 02:53:30 11.68, 156.24 508.13 165
2 10/25/2022 14:52:50 10.01, 163.62 10/25/2022 14:50:23 10.21, 160.41 351.35 147
3 10/25/2022 16:28:15 22.49, 141.73 10/25/2022 16:28:12 23.18, 138.14 376.12 3
4 11/02/2022 15:36:00 22.59, 154.85 11/02/2022 15:37:19 23.45, 150.92 414.62 79
5 11/05/2022 03:56:56 22.64, 142.74 11/05/2022 03:53:27 22.04, 139.53 337.14 209
6 11/13/2022 03:04:36 22.68, 155.87 11/13/2022 03:02:36 21.95, 152.27 379.15 120
